Location: Tel Aviv
(32.0670°N, 34.7670°E)
Time: 21:55:43
(UTC+02:00)

CUTE-I - Pass Details

Date: 21 December 2025
Orbit: 805 x 817 km, 98.7° (Epoch: 21 January)

Event Time Altitude Azimuth Distance (km) Brightness Sun altitude
Rises 04:46:21 0° 35° (NE) 3,346 ? -22.8°
Reaches altitude 10° 04:49:40 10° 57° (ENE) 2,410 ? -22.2°
Maximum altitude 04:52:52 16° 94° (E) 2,013 ? -21.5°
Drops below altitude 10° 04:56:03 10° 131° (SE) 2,403 ? -20.8°
Sets 04:59:19 0° 152° (SSE) 3,330 ? -20.2°
